Location: Newark
(41.8922°N, 9.0050°E)
Time: 00:45:47
(UTC+00:00)

ISS - Pass Details

Date: 29 January 2020
Orbit: 416 x 422 km, 51.6° (Epoch: 21 February)

Event Time Altitude Azimuth Distance (km) Brightness Sun altitude
Rises 18:14:26 0° 300° (WNW) 2,378 0.9 -18.7°
Reaches altitude 10° 18:17:10 10° 323° (NW) 1,512 -0.6 -19.2°
Enters shadow 18:19:06 16° 358° (N) 1,209 -1.5 -19.6°
